Tracking 25949 objects as of 9-Aug-2022
HD Live streaming from Space Station
objects crossing your sky now

STARLINK-3082

Track STARLINK-3082 now!
10-day predictions
STARLINK-3082 is classified as:


NORAD ID: 49162
Int'l Code: 2021-082AJ
Perigee: 577.0 km
Apogee: 581.4 km
Inclination: 70.0 °
Period: 96.1 minutes
Semi major axis: 6950 km
RCS: Unknown
Launch date: September 14, 2021
Source: United States (US)
Launch site: AIR FORCE WESTERN TEST RANGE (AFWTR)
aabbcc
Your satellite tracking list
Your tracking list is empty




NASA's NSSDC Master Catalog

Two Line Element Set (TLE):
1 49162U 21082AJ  22220.77802989  .00000477  00000-0  47773-4 0  9993
2 49162  70.0015 354.6763 0003200 257.4391 102.6410 14.98332881 51071
Source of the keplerian elements: AFSPC